Change the Weather History Date:

Wednesday, January 9, 2013

  Actual Average Record
Temperature  
Mean Temperature 48 °F -  
Max Temperature 51 °F 47 °F 80 °F (2009)
Min Temperature 46 °F 22 °F 3 °F (1977)
Degree Days  
Heating Degree Days 16    
Moisture  
Dew Point 44 °F    
Average Humidity 86    
Maximum Humidity 96    
Minimum Humidity 76    
Precipitation  
Precipitation 0.12 in - - ()
Sea Level Pressure  
Sea Level Pressure 30.15 in    
Wind  
Wind Speed 14 mph (NNE)    
Max Wind Speed 25 mph    
Max Gust Speed 34 mph    
Visibility 6 miles    
Events Rain    
Averages and records for this station are not official NWS values.
T = Trace of Precipitation, MM = Missing Value Source: NWS Daily Summary

Daily Weather History Graph

Daily Weather History Graph

Search for Another Location

Airport or City:

Trip Planner

Search our weather history database for the weather conditions in past years. The results will help you decide how hot, cold, wet, or windy it might be!

Date:

Astronomy

Jan. 09, 2013 Rise Set
Actual Time 7:41 AM CST 5:41 PM CST
Civil Twilight 7:13 AM CST 6:08 PM CST
Nautical Twilight 6:42 AM CST 6:39 PM CST
Astronomical Twilight 6:11 AM CST 7:10 PM CST
Moon 5:21 AM CST (1/9) 3:44 PM CST (1/9)
Length of Visible Light 10h 55m
Length of Day
10h 00m
Waning Crescent, 6% of the Moon is Illuminated
Jan 9
Waning Crescent
Jan 11
New
Jan 18
First Quarter
Jan 26
Full
Feb 3
Last Quarter

Hourly Weather History & Observations

Time (CST) Temp. Windchill Dew Point Humidity Pressure Visibility Wind Dir Wind Speed Gust Speed Precip Events Conditions
12:19 AM 50.0 °F - 42.8 °F 76% 30.15 in 8.0 mi NE 6.9 mph - N/A   Overcast
12:53 AM 48.9 °F - 42.1 °F 77% 30.16 in 9.0 mi North 8.1 mph - N/A   Overcast
1:53 AM 48.9 °F - 43.0 °F 80% 30.15 in 10.0 mi NNE 9.2 mph - N/A   Overcast
2:01 AM 48.2 °F - 42.8 °F 82% 30.15 in 10.0 mi North 9.2 mph - N/A   Overcast
2:53 AM 48.9 °F - 43.0 °F 80% 30.15 in 9.0 mi NNE 11.5 mph - N/A   Overcast
3:53 AM 48.9 °F - 43.0 °F 80% 30.17 in 8.0 mi North 13.8 mph - N/A   Overcast
4:30 AM 48.2 °F - 42.8 °F 82% 30.15 in 8.0 mi NNE 12.7 mph - N/A   Overcast
4:43 AM 48.2 °F - 42.8 °F 82% 30.14 in 7.0 mi NNE 16.1 mph - N/A   Overcast
4:50 AM 48.2 °F - 42.8 °F 82% 30.15 in 8.0 mi North 12.7 mph - N/A   Overcast
4:53 AM 48.9 °F - 43.0 °F 80% 30.15 in 9.0 mi North 12.7 mph - N/A   Overcast
5:01 AM 48.2 °F - 42.8 °F 82% 30.15 in 9.0 mi NNE 16.1 mph - N/A   Overcast
5:08 AM 48.2 °F - 42.8 °F 82% 30.15 in 10.0 mi North 15.0 mph - N/A   Overcast
5:32 AM 48.2 °F - 42.8 °F 82% 30.17 in 10.0 mi North 17.3 mph - N/A   Overcast
5:53 AM 48.9 °F - 42.1 °F 77% 30.19 in 8.0 mi North 16.1 mph - N/A   Overcast
6:28 AM 48.2 °F - 42.8 °F 82% 30.19 in 7.0 mi NNE 16.1 mph - N/A   Overcast
6:53 AM 48.0 °F - 43.0 °F 83% 30.20 in 7.0 mi NNE 16.1 mph - N/A   Overcast
7:08 AM 48.2 °F - 42.8 °F 82% 30.20 in 7.0 mi NNE 17.3 mph - N/A   Overcast
7:53 AM 48.9 °F - 43.0 °F 80% 30.21 in 8.0 mi NNE 20.7 mph - N/A   Overcast
8:12 AM 48.2 °F - 42.8 °F 82% 30.21 in 8.0 mi NNE 19.6 mph - N/A   Overcast
8:53 AM 48.0 °F - 42.1 °F 80% 30.25 in 7.0 mi North 16.1 mph - N/A   Overcast
9:10 AM 48.2 °F - 44.6 °F 87% 30.25 in 5.0 mi NNE 18.4 mph 25.3 mph N/A   Overcast
9:53 AM 48.0 °F - 43.0 °F 83% 30.27 in 6.0 mi NNE 18.4 mph - N/A   Haze
10:53 AM 48.0 °F - 43.0 °F 83% 30.25 in 4.0 mi NNE 19.6 mph 28.8 mph N/A   Haze
11:10 AM 46.4 °F 38.7 °F 42.8 °F 87% 30.24 in 1.8 mi NNE 20.7 mph - 0.00 in Rain Light Rain
11:32 AM 46.4 °F 39.2 °F 42.8 °F 87% 30.23 in 3.0 mi NNE 18.4 mph - 0.00 in   Overcast
12:22 PM 46.4 °F 39.5 °F 44.6 °F 93% 30.20 in 3.0 mi NNE 17.3 mph - N/A   Overcast
12:53 PM 46.9 °F - 44.1 °F 90% 30.17 in 4.0 mi NNE 20.7 mph - N/A   Overcast
1:23 PM 48.2 °F - 44.6 °F 87% 30.14 in 4.0 mi NNE 24.2 mph 32.2 mph 0.00 in Rain Light Rain
1:45 PM 48.2 °F - 44.6 °F 87% 30.12 in 4.0 mi NNE 25.3 mph 32.2 mph 0.00 in Rain Light Rain
1:53 PM 48.0 °F - 45.0 °F 89% 30.12 in 4.0 mi NNE 25.3 mph 34.5 mph 0.00 in   Overcast
2:53 PM 48.0 °F - 45.0 °F 89% 30.13 in 4.0 mi NNE 23.0 mph 32.2 mph 0.00 in Rain Light Rain
3:53 PM 48.9 °F - 46.0 °F 90% 30.12 in 5.0 mi NNE 18.4 mph - 0.00 in   Overcast
4:53 PM 48.9 °F - 46.0 °F 90% 30.14 in 8.0 mi NNE 18.4 mph - 0.00 in   Overcast
5:14 PM 48.2 °F - 46.4 °F 93% 30.13 in 2.5 mi NNE 19.6 mph - 0.00 in Rain Light Rain
5:25 PM 48.2 °F - 46.4 °F 93% 30.11 in 3.0 mi NNE 20.7 mph - 0.01 in Rain Light Rain
5:53 PM 48.0 °F - 46.0 °F 93% 30.10 in 4.0 mi NNE 19.6 mph - 0.01 in Rain Light Rain
6:53 PM 48.0 °F - 46.9 °F 96% 30.11 in 5.0 mi NNE 15.0 mph - 0.00 in   Overcast
7:53 PM 50.0 °F - 48.0 °F 93% 30.09 in 6.0 mi NNE 17.3 mph - 0.01 in Rain Light Rain
8:53 PM 51.1 °F - 48.9 °F 92% 30.08 in 10.0 mi NE 16.1 mph 21.9 mph 0.03 in   Overcast
9:53 PM 51.1 °F - 48.9 °F 92% 30.08 in 6.0 mi ENE 13.8 mph - N/A   Overcast
10:32 PM 51.8 °F - 48.2 °F 88% 30.06 in 1.8 mi ENE 13.8 mph - 0.04 in Rain Heavy Rain
10:43 PM 51.8 °F - 48.2 °F 88% 30.06 in 3.0 mi ENE 11.5 mph - 0.04 in Rain Light Rain
10:53 PM 51.1 °F - 48.9 °F 92% 30.06 in 3.0 mi ENE 9.2 mph - 0.05 in Rain Light Rain
11:53 PM 51.1 °F - 48.9 °F 92% 30.04 in 9.0 mi NE 11.5 mph - 0.02 in Rain Light Rain